Time,TemperatureF,DewpointF,PressureIn,WindDirection,WindDirectionDegrees,WindSpeedMPH,WindSpeedGustMPH,Humidity,HourlyPrecipIn,Conditions,Clouds,dailyrainin,SoftwareType,DateUTC
2016-02-08 00:05:00,43.8,40.8,30.10,WSW,255,0.0,0.0,89,0.00,,,0.00,Wunderground v.1.15,2016-02-08 05:05:00,
2016-02-08 00:10:00,43.9,40.9,30.09,WSW,255,0.0,0.0,89,0.00,,,0.00,Wunderground v.1.15,2016-02-08 05:10:00,
2016-02-08 00:25:00,44.5,40.9,30.09,WSW,255,0.0,0.0,87,0.00,,,0.00,Wunderground v.1.15,2016-02-08 05:25:00,
2016-02-08 00:35:00,44.3,40.7,30.09,WSW,255,0.0,0.0,87,0.00,,,0.00,Wunderground v.1.15,2016-02-08 05:35:00,
2016-02-08 00:40:00,44.2,40.9,30.09,WSW,255,0.0,0.0,88,0.00,,,0.00,Wunderground v.1.15,2016-02-08 05:40:00,
2016-02-08 00:45:00,43.9,40.6,30.09,WSW,255,0.0,0.0,88,0.00,,,0.00,Wunderground v.1.15,2016-02-08 05:45:00,
2016-02-08 00:50:00,43.5,40.2,30.09,WSW,255,0.0,0.0,88,0.00,,,0.00,Wunderground v.1.15,2016-02-08 05:50:00,
2016-02-08 00:55:00,43.1,40.4,30.09,WSW,255,0.0,0.0,90,0.00,,,0.00,Wunderground v.1.15,2016-02-08 05:55:00,
2016-02-08 01:00:00,43.0,40.6,30.09,WSW,255,0.0,0.0,91,0.00,,,0.00,Wunderground v.1.15,2016-02-08 06:00:00,
2016-02-08 01:10:00,42.5,40.1,30.09,WSW,255,0.0,0.0,91,0.00,,,0.00,Wunderground v.1.15,2016-02-08 06:10:00,
2016-02-08 01:15:00,42.3,39.9,30.09,WSW,255,0.0,0.0,91,0.00,,,0.00,Wunderground v.1.15,2016-02-08 06:15:00,
2016-02-08 01:20:00,42.2,40.0,30.09,WSW,255,0.0,0.0,92,0.00,,,0.00,Wunderground v.1.15,2016-02-08 06:20:00,
2016-02-08 01:25:00,42.1,39.9,30.08,WSW,255,0.0,0.0,92,0.00,,,0.00,Wunderground v.1.15,2016-02-08 06:25:00,
2016-02-08 01:30:00,41.9,40.0,30.09,WSW,255,0.0,0.0,93,0.00,,,0.00,Wunderground v.1.15,2016-02-08 06:30:00,
2016-02-08 01:35:00,41.8,39.9,30.09,WSW,255,0.0,0.0,93,0.00,,,0.00,Wunderground v.1.15,2016-02-08 06:35:00,
2016-02-08 01:40:00,41.6,39.7,30.09,WSW,255,0.0,0.0,93,0.00,,,0.00,Wunderground v.1.15,2016-02-08 06:40:00,
2016-02-08 01:45:00,41.4,39.5,30.08,WSW,255,0.0,0.0,93,0.00,,,0.00,Wunderground v.1.15,2016-02-08 06:45:00,
2016-02-08 01:50:00,41.2,39.3,30.08,WSW,255,0.0,0.0,93,0.00,,,0.00,Wunderground v.1.15,2016-02-08 06:50:00,
2016-02-08 01:55:00,41.0,39.1,30.08,WSW,255,0.0,0.0,93,0.00,,,0.00,Wunderground v.1.15,2016-02-08 06:55:00,
2016-02-08 02:00:00,40.8,38.9,30.08,WSW,255,0.0,0.0,93,0.00,,,0.00,Wunderground v.1.15,2016-02-08 07:00:00,
2016-02-08 02:10:00,40.8,39.2,30.07,WSW,255,0.0,0.0,94,0.00,,,0.00,Wunderground v.1.15,2016-02-08 07:10:00,
2016-02-08 02:15:00,40.8,39.2,30.07,WSW,255,0.0,0.0,94,0.00,,,0.00,Wunderground v.1.15,2016-02-08 07:15:00,
2016-02-08 02:20:00,40.8,39.5,30.07,WSW,255,0.0,0.0,95,0.00,,,0.00,Wunderground v.1.15,2016-02-08 07:20:00,
2016-02-08 02:25:00,40.6,39.3,30.07,WSW,255,0.0,0.0,95,0.00,,,0.00,Wunderground v.1.15,2016-02-08 07:25:00,
2016-02-08 02:30:00,40.3,38.7,30.07,WSW,255,0.0,0.0,94,0.00,,,0.00,Wunderground v.1.15,2016-02-08 07:30:00,
2016-02-08 02:35:00,40.3,39.0,30.07,WSW,255,0.0,0.0,95,0.00,,,0.00,Wunderground v.1.15,2016-02-08 07:35:00,
2016-02-08 02:45:00,40.4,39.1,30.06,WSW,255,0.0,0.0,95,0.00,,,0.00,Wunderground v.1.15,2016-02-08 07:45:00,
2016-02-08 02:50:00,40.3,39.0,30.06,WSW,255,0.0,0.0,95,0.00,,,0.00,Wunderground v.1.15,2016-02-08 07:50:00,
2016-02-08 02:55:00,40.2,38.9,30.06,WSW,255,0.0,0.0,95,0.00,,,0.00,Wunderground v.1.15,2016-02-08 07:55:00,
2016-02-08 03:00:00,40.2,38.9,30.06,WSW,255,0.0,0.0,95,0.00,,,0.00,Wunderground v.1.15,2016-02-08 08:00:00,
2016-02-08 03:10:00,40.2,38.9,30.06,WSW,255,0.0,0.0,95,0.00,,,0.00,Wunderground v.1.15,2016-02-08 08:10:00,
2016-02-08 03:20:00,40.0,39.0,30.06,WSW,255,0.0,0.0,96,0.00,,,0.00,Wunderground v.1.15,2016-02-08 08:20:00,
2016-02-08 03:25:00,40.0,39.0,30.06,WSW,255,0.0,0.0,96,0.00,,,0.00,Wunderground v.1.15,2016-02-08 08:25:00,
2016-02-08 03:30:00,40.0,39.0,30.05,WSW,255,0.0,0.0,96,0.00,,,0.00,Wunderground v.1.15,2016-02-08 08:30:00,
2016-02-08 03:35:00,39.9,38.9,30.05,WSW,255,0.0,0.0,96,0.00,,,0.00,Wunderground v.1.15,2016-02-08 08:35:00,
2016-02-08 03:45:00,39.8,38.8,30.05,WSW,255,0.0,0.0,96,0.00,,,0.00,Wunderground v.1.15,2016-02-08 08:45:00,
2016-02-08 03:50:00,39.7,38.7,30.04,WSW,255,0.0,0.0,96,0.00,,,0.00,Wunderground v.1.15,2016-02-08 08:50:00,
2016-02-08 03:55:00,39.7,38.7,30.05,WSW,255,0.0,0.0,96,0.00,,,0.00,Wunderground v.1.15,2016-02-08 08:55:00,
2016-02-08 04:00:00,39.8,38.8,30.04,WSW,255,0.0,0.0,96,0.00,,,0.00,Wunderground v.1.15,2016-02-08 09:00:00,
2016-02-08 04:05:00,39.7,38.7,30.04,WSW,255,0.0,0.0,96,0.00,,,0.00,Wunderground v.1.15,2016-02-08 09:05:00,
2016-02-08 04:10:00,39.7,38.7,30.05,WSW,255,0.0,0.0,96,0.00,,,0.00,Wunderground v.1.15,2016-02-08 09:10:00,
2016-02-08 04:15:00,39.7,38.7,30.05,WSW,255,0.0,0.0,96,0.00,,,0.00,Wunderground v.1.15,2016-02-08 09:15:00,
2016-02-08 04:20:00,39.7,38.7,30.05,WSW,255,0.0,0.0,96,0.00,,,0.00,Wunderground v.1.15,2016-02-08 09:20:00,
2016-02-08 04:25:00,39.7,38.7,30.05,WSW,255,0.0,0.0,96,0.00,,,0.00,Wunderground v.1.15,2016-02-08 09:25:00,
2016-02-08 04:30:00,39.7,38.7,30.05,WSW,255,0.0,0.0,96,0.00,,,0.00,Wunderground v.1.15,2016-02-08 09:30:00,
2016-02-08 04:35:00,39.7,38.7,30.05,WSW,255,0.0,0.0,96,0.00,,,0.00,Wunderground v.1.15,2016-02-08 09:35:00,
2016-02-08 04:40:00,39.7,38.7,30.05,WSW,255,0.0,0.0,96,0.00,,,0.00,Wunderground v.1.15,2016-02-08 09:40:00,
2016-02-08 04:55:00,39.6,38.6,30.06,WSW,255,0.0,0.0,96,0.00,,,0.00,Wunderground v.1.15,2016-02-08 09:55:00,
2016-02-08 05:00:00,39.5,38.5,30.06,WSW,255,0.0,0.0,96,0.00,,,0.00,Wunderground v.1.15,2016-02-08 10:00:00,
2016-02-08 05:05:00,39.4,38.4,30.06,WSW,255,0.0,0.0,96,0.00,,,0.00,Wunderground v.1.15,2016-02-08 10:05:00,
2016-02-08 05:10:00,39.3,38.3,30.06,WSW,255,0.0,0.0,96,0.00,,,0.00,Wunderground v.1.15,2016-02-08 10:10:00,
2016-02-08 05:20:00,38.8,37.8,30.07,WSW,255,0.0,0.0,96,0.00,,,0.00,Wunderground v.1.15,2016-02-08 10:20:00,
2016-02-08 05:30:00,38.5,37.5,30.07,WSW,255,0.0,0.0,96,0.00,,,0.00,Wunderground v.1.15,2016-02-08 10:30:00,
2016-02-08 05:35:00,38.7,37.7,30.07,WSW,255,0.0,0.0,96,0.00,,,0.00,Wunderground v.1.15,2016-02-08 10:35:00,
2016-02-08 05:40:00,38.8,37.8,30.07,WSW,255,0.0,0.0,96,0.00,,,0.00,Wunderground v.1.15,2016-02-08 10:40:00,
2016-02-08 05:50:00,38.7,37.7,30.07,WSW,255,0.0,0.0,96,0.00,,,0.00,Wunderground v.1.15,2016-02-08 10:50:00,
2016-02-08 05:55:00,38.5,37.5,30.07,WSW,255,0.0,0.0,96,0.00,,,0.00,Wunderground v.1.15,2016-02-08 10:55:00,
2016-02-08 06:00:00,38.6,37.6,30.08,WSW,255,0.0,0.0,96,0.00,,,0.00,Wunderground v.1.15,2016-02-08 11:00:00,
2016-02-08 06:05:00,38.7,37.7,30.08,WSW,255,0.0,0.0,96,0.00,,,0.00,Wunderground v.1.15,2016-02-08 11:05:00,
2016-02-08 06:10:00,38.7,37.7,30.08,WSW,255,0.0,0.0,96,0.00,,,0.00,Wunderground v.1.15,2016-02-08 11:10:00,
2016-02-08 06:15:00,38.5,37.5,30.08,WSW,255,0.0,0.0,96,0.00,,,0.00,Wunderground v.1.15,2016-02-08 11:15:00,
2016-02-08 06:25:00,38.6,37.8,30.09,WSW,255,0.0,0.0,97,0.00,,,0.00,Wunderground v.1.15,2016-02-08 11:25:00,
2016-02-08 06:30:00,38.7,37.9,30.09,WSW,255,0.0,0.0,97,0.00,,,0.00,Wunderground v.1.15,2016-02-08 11:30:00,
2016-02-08 06:35:00,38.7,37.9,30.09,WSW,255,0.0,0.0,97,0.00,,,0.00,Wunderground v.1.15,2016-02-08 11:35:00,
2016-02-08 06:40:00,38.7,37.9,30.09,WSW,255,0.0,0.0,97,0.00,,,0.00,Wunderground v.1.15,2016-02-08 11:40:00,
2016-02-08 06:45:00,38.8,38.0,30.09,WSW,255,0.0,0.0,97,0.00,,,0.00,Wunderground v.1.15,2016-02-08 11:45:00,
2016-02-08 06:50:00,38.9,38.1,30.09,WSW,255,0.0,0.0,97,0.00,,,0.00,Wunderground v.1.15,2016-02-08 11:50:00,
2016-02-08 06:55:00,38.8,38.0,30.09,WSW,255,0.0,0.0,97,0.00,,,0.00,Wunderground v.1.15,2016-02-08 11:55:00,
2016-02-08 07:00:00,38.9,38.1,30.09,WSW,255,0.0,0.0,97,0.00,,,0.00,Wunderground v.1.15,2016-02-08 12:00:00,
2016-02-08 07:05:00,38.9,38.1,30.09,WSW,255,0.0,0.0,97,0.00,,,0.00,Wunderground v.1.15,2016-02-08 12:05:00,
2016-02-08 07:10:00,39.0,38.2,30.09,WSW,255,0.0,0.0,97,0.00,,,0.00,Wunderground v.1.15,2016-02-08 12:10:00,
2016-02-08 07:15:00,39.0,38.2,30.09,WSW,255,0.0,0.0,97,0.00,,,0.00,Wunderground v.1.15,2016-02-08 12:15:00,
2016-02-08 07:25:00,39.1,38.3,30.09,WSW,255,0.0,0.0,97,0.00,,,0.00,Wunderground v.1.15,2016-02-08 12:25:00,
2016-02-08 07:30:00,39.1,38.3,30.09,WSW,255,0.0,0.0,97,0.00,,,0.00,Wunderground v.1.15,2016-02-08 12:30:00,
2016-02-08 07:35:00,39.3,38.5,30.09,WSW,255,0.0,0.0,97,0.00,,,0.00,Wunderground v.1.15,2016-02-08 12:35:00,
2016-02-08 07:40:00,39.6,38.8,30.10,WSW,255,0.0,0.0,97,0.00,,,0.00,Wunderground v.1.15,2016-02-08 12:40:00,
2016-02-08 07:45:00,40.0,39.2,30.10,WSW,255,0.0,0.0,97,0.00,,,0.00,Wunderground v.1.15,2016-02-08 12:45:00,
2016-02-08 07:50:00,40.3,39.5,30.10,WSW,255,0.0,0.0,97,0.00,,,0.00,Wunderground v.1.15,2016-02-08 12:50:00,
2016-02-08 08:00:00,41.1,40.3,30.10,WSW,255,0.0,0.0,97,0.00,,,0.00,Wunderground v.1.15,2016-02-08 13:00:00,
2016-02-08 08:05:00,41.8,41.0,30.10,WSW,255,0.0,0.0,97,0.00,,,0.00,Wunderground v.1.15,2016-02-08 13:05:00,
2016-02-08 08:10:00,42.3,41.5,30.11,WSW,255,0.0,0.0,97,0.00,,,0.00,Wunderground v.1.15,2016-02-08 13:10:00,
2016-02-08 08:15:00,42.6,41.8,30.11,WSW,255,0.0,0.0,97,0.00,,,0.00,Wunderground v.1.15,2016-02-08 13:15:00,
2016-02-08 08:20:00,42.8,42.0,30.11,WSW,255,0.0,0.0,97,0.00,,,0.00,Wunderground v.1.15,2016-02-08 13:20:00,
2016-02-08 08:25:00,43.5,42.7,30.11,WSW,255,0.0,0.0,97,0.00,,,0.00,Wunderground v.1.15,2016-02-08 13:25:00,
2016-02-08 08:30:00,43.8,43.0,30.11,WSW,255,0.0,0.0,97,0.00,,,0.00,Wunderground v.1.15,2016-02-08 13:30:00,
2016-02-08 08:40:00,44.7,43.9,30.12,WSW,255,0.0,0.0,97,0.00,,,0.00,Wunderground v.1.15,2016-02-08 13:40:00,
2016-02-08 08:45:00,45.3,44.5,30.11,WSW,255,0.0,0.0,97,0.00,,,0.00,Wunderground v.1.15,2016-02-08 13:45:00,
2016-02-08 08:50:00,46.4,45.6,30.12,WSW,255,0.0,0.0,97,0.00,,,0.00,Wunderground v.1.15,2016-02-08 13:50:00,
2016-02-08 08:55:00,47.6,46.8,30.12,WSW,255,0.0,0.0,97,0.00,,,0.00,Wunderground v.1.15,2016-02-08 13:55:00,
2016-02-08 09:00:00,48.2,47.4,30.13,WSW,255,0.0,0.0,97,0.00,,,0.00,Wunderground v.1.15,2016-02-08 14:00:00,
2016-02-08 09:05:00,48.5,47.7,30.13,WSW,255,0.0,0.0,97,0.00,,,0.00,Wunderground v.1.15,2016-02-08 14:05:00,
2016-02-08 09:10:00,48.8,48.0,30.13,WSW,255,0.0,0.0,97,0.00,,,0.00,Wunderground v.1.15,2016-02-08 14:10:00,
2016-02-08 09:15:00,49.0,48.2,30.13,WSW,255,0.0,0.0,97,0.00,,,0.00,Wunderground v.1.15,2016-02-08 14:15:00,
2016-02-08 09:25:00,49.8,49.0,30.13,WSW,255,0.0,0.0,97,0.00,,,0.00,Wunderground v.1.15,2016-02-08 14:25:00,
2016-02-08 09:35:00,52.3,47.6,30.13,SW,229,0.0,0.0,84,0.00,,,0.00,Wunderground v.1.15,2016-02-08 14:35:00,
2016-02-08 09:40:00,53.2,47.2,30.13,SW,229,0.0,0.0,80,0.00,,,0.00,Wunderground v.1.15,2016-02-08 14:40:00,
2016-02-08 09:45:00,53.8,46.8,30.13,SW,228,0.0,0.0,77,0.00,,,0.00,Wunderground v.1.15,2016-02-08 14:45:00,
2016-02-08 09:50:00,54.4,47.7,30.13,SW,228,0.0,0.0,78,0.00,,,0.00,Wunderground v.1.15,2016-02-08 14:50:00,
2016-02-08 09:55:00,54.8,47.0,30.13,SW,223,0.0,0.0,75,0.00,,,0.00,Wunderground v.1.15,2016-02-08 14:55:00,
2016-02-08 10:05:00,56.3,47.0,30.13,SSW,207,0.0,0.0,71,0.00,,,0.00,Wunderground v.1.15,2016-02-08 15:05:00,
2016-02-08 10:10:00,57.0,46.9,30.13,WSW,254,0.0,0.0,69,0.00,,,0.00,Wunderground v.1.15,2016-02-08 15:10:00,
2016-02-08 10:15:00,57.3,46.4,30.14,WSW,258,0.0,0.0,67,0.00,,,0.00,Wunderground v.1.15,2016-02-08 15:15:00,
2016-02-08 10:20:00,57.7,46.0,30.13,West,260,0.0,0.0,65,0.00,,,0.00,Wunderground v.1.15,2016-02-08 15:20:00,
2016-02-08 10:25:00,58.0,45.9,30.13,WSW,238,0.0,0.0,64,0.00,,,0.00,Wunderground v.1.15,2016-02-08 15:25:00,
2016-02-08 10:30:00,58.3,45.8,30.13,West,278,0.0,0.0,63,0.00,,,0.00,Wunderground v.1.15,2016-02-08 15:30:00,
2016-02-08 10:35:00,58.7,46.1,30.13,West,262,0.0,0.0,63,0.00,,,0.00,Wunderground v.1.15,2016-02-08 15:35:00,
2016-02-08 10:40:00,59.1,45.2,30.13,WSW,257,0.0,0.0,60,0.00,,,0.00,Wunderground v.1.15,2016-02-08 15:40:00,
2016-02-08 10:45:00,59.3,45.4,30.12,South,179,0.0,0.0,60,0.00,,,0.00,Wunderground v.1.15,2016-02-08 15:45:00,
2016-02-08 10:50:00,59.9,45.5,30.12,West,277,0.0,0.0,59,0.00,,,0.00,Wunderground v.1.15,2016-02-08 15:50:00,
2016-02-08 10:55:00,60.5,46.5,30.11,North,8,0.0,0.0,60,0.00,,,0.00,Wunderground v.1.15,2016-02-08 15:55:00,
2016-02-08 11:00:00,61.1,47.1,30.11,WNW,292,0.0,0.0,60,0.00,,,0.00,Wunderground v.1.15,2016-02-08 16:00:00,
2016-02-08 11:10:00,61.6,47.1,30.11,WNW,285,1.0,1.0,59,0.00,,,0.00,Wunderground v.1.15,2016-02-08 16:10:00,
2016-02-08 11:15:00,61.6,47.1,30.10,WNW,297,2.0,2.0,59,0.00,,,0.00,Wunderground v.1.15,2016-02-08 16:15:00,
2016-02-08 11:20:00,62.0,47.5,30.10,West,263,2.0,4.0,59,0.00,,,0.00,Wunderground v.1.15,2016-02-08 16:20:00,
2016-02-08 11:25:00,62.2,47.2,30.10,West,263,2.0,4.0,58,0.00,,,0.00,Wunderground v.1.15,2016-02-08 16:25:00,
2016-02-08 11:30:00,62.5,48.4,30.10,SW,229,2.0,2.0,60,0.00,,,0.00,Wunderground v.1.15,2016-02-08 16:30:00,
2016-02-08 11:40:00,62.7,47.2,30.09,WNW,293,2.0,2.0,57,0.00,,,0.00,Wunderground v.1.15,2016-02-08 16:40:00,
2016-02-08 11:45:00,63.5,49.8,30.09,WSW,258,2.0,2.0,61,0.00,,,0.00,Wunderground v.1.15,2016-02-08 16:45:00,
2016-02-08 11:50:00,63.9,48.4,30.09,NNE,18,2.0,2.0,57,0.00,,,0.00,Wunderground v.1.15,2016-02-08 16:50:00,
2016-02-08 11:55:00,64.0,48.5,30.08,NW,312,2.0,4.0,57,0.00,,,0.00,Wunderground v.1.15,2016-02-08 16:55:00,
2016-02-08 12:00:00,64.0,48.0,30.08,South,174,2.0,2.0,56,0.00,,,0.00,Wunderground v.1.15,2016-02-08 17:00:00,
2016-02-08 12:10:00,64.9,49.3,30.08,SW,219,2.0,2.0,57,0.00,,,0.00,Wunderground v.1.15,2016-02-08 17:10:00,
2016-02-08 12:20:00,64.8,49.2,30.07,WSW,252,2.0,3.0,57,0.00,,,0.00,Wunderground v.1.15,2016-02-08 17:20:00,
2016-02-08 12:25:00,64.9,49.3,30.07,SE,127,2.0,3.0,57,0.00,,,0.00,Wunderground v.1.15,2016-02-08 17:25:00,
2016-02-08 12:30:00,65.2,50.0,30.06,ESE,110,2.0,2.0,58,0.00,,,0.00,Wunderground v.1.15,2016-02-08 17:30:00,
2016-02-08 12:35:00,66.1,50.4,30.06,WNW,283,1.0,2.0,57,0.00,,,0.00,Wunderground v.1.15,2016-02-08 17:35:00,
2016-02-08 12:45:00,66.1,50.9,30.06,SSW,193,2.0,4.0,58,0.00,,,0.00,Wunderground v.1.15,2016-02-08 17:45:00,
2016-02-08 12:50:00,65.6,50.4,30.05,WSW,242,2.0,4.0,58,0.00,,,0.00,Wunderground v.1.15,2016-02-08 17:50:00,
2016-02-08 12:55:00,65.3,50.6,30.05,SSW,207,2.0,4.0,59,0.00,,,0.00,Wunderground v.1.15,2016-02-08 17:55:00,
2016-02-08 13:00:00,65.8,51.1,30.05,North,6,2.0,2.0,59,0.00,,,0.00,Wunderground v.1.15,2016-02-08 18:00:00,
2016-02-08 13:05:00,66.1,50.4,30.04,WNW,296,1.0,3.0,57,0.00,,,0.00,Wunderground v.1.15,2016-02-08 18:05:00,
2016-02-08 13:10:00,66.5,50.8,30.04,NW,325,2.0,2.0,57,0.00,,,0.00,Wunderground v.1.15,2016-02-08 18:10:00,
2016-02-08 13:15:00,66.5,50.8,30.04,West,272,3.0,4.0,57,0.00,,,0.00,Wunderground v.1.15,2016-02-08 18:15:00,
2016-02-08 13:20:00,66.7,51.0,30.03,ESE,119,3.0,3.0,57,0.00,,,0.00,Wunderground v.1.15,2016-02-08 18:20:00,
2016-02-08 13:25:00,67.3,51.1,30.03,South,184,3.0,3.0,56,0.00,,,0.00,Wunderground v.1.15,2016-02-08 18:25:00,
2016-02-08 13:30:00,67.8,51.0,30.02,SW,222,3.0,3.0,55,0.00,,,0.00,Wunderground v.1.15,2016-02-08 18:30:00,
2016-02-08 13:35:00,67.9,51.6,30.02,WNW,289,3.0,3.0,56,0.00,,,0.00,Wunderground v.1.15,2016-02-08 18:35:00,
2016-02-08 13:40:00,68.2,51.4,30.01,NNW,336,2.0,5.0,55,0.00,,,0.00,Wunderground v.1.15,2016-02-08 18:40:00,
2016-02-08 13:50:00,68.3,51.5,30.01,WNW,283,2.0,2.0,55,0.00,,,0.00,Wunderground v.1.15,2016-02-08 18:50:00,
2016-02-08 13:55:00,67.9,52.1,30.01,NW,325,2.0,2.0,57,0.00,,,0.00,Wunderground v.1.15,2016-02-08 18:55:00,
2016-02-08 14:00:00,67.9,50.6,30.01,WNW,293,2.0,3.0,54,0.00,,,0.00,Wunderground v.1.15,2016-02-08 19:00:00,
2016-02-08 14:10:00,67.5,51.2,30.01,SE,144,2.0,3.0,56,0.00,,,0.00,Wunderground v.1.15,2016-02-08 19:10:00,
2016-02-08 14:20:00,67.0,52.2,30.01,SSE,147,2.0,2.0,59,0.00,,,0.00,Wunderground v.1.15,2016-02-08 19:20:00,
2016-02-08 14:25:00,67.1,51.8,30.00,North,356,2.0,6.0,58,0.00,,,0.00,Wunderground v.1.15,2016-02-08 19:25:00,
2016-02-08 14:30:00,67.3,52.5,30.00,SSE,165,2.0,2.0,59,0.00,,,0.00,Wunderground v.1.15,2016-02-08 19:30:00,
2016-02-08 14:35:00,66.9,52.1,30.00,NNW,345,3.0,4.0,59,0.00,,,0.00,Wunderground v.1.15,2016-02-08 19:35:00,
2016-02-08 14:40:00,66.3,51.5,30.00,NW,311,3.0,3.0,59,0.00,,,0.00,Wunderground v.1.15,2016-02-08 19:40:00,
2016-02-08 14:45:00,65.9,51.2,29.99,ESE,109,3.0,3.0,59,0.00,,,0.00,Wunderground v.1.15,2016-02-08 19:45:00,
2016-02-08 14:55:00,65.7,51.9,29.99,North,11,2.0,3.0,61,0.00,,,0.00,Wunderground v.1.15,2016-02-08 19:55:00,
2016-02-08 15:00:00,66.0,52.2,29.99,WSW,249,2.0,2.0,61,0.00,,,0.00,Wunderground v.1.15,2016-02-08 20:00:00,
2016-02-08 15:05:00,66.1,52.3,29.99,WNW,293,2.0,8.0,61,0.00,,,0.00,Wunderground v.1.15,2016-02-08 20:05:00,
2016-02-08 15:15:00,65.8,52.4,29.98,NE,36,2.0,3.0,62,0.00,,,0.00,Wunderground v.1.15,2016-02-08 20:15:00,
2016-02-08 15:25:00,66.3,52.9,29.98,South,175,2.0,3.0,62,0.00,,,0.00,Wunderground v.1.15,2016-02-08 20:25:00,
2016-02-08 15:30:00,66.6,53.2,29.98,SSW,197,2.0,2.0,62,0.00,,,0.00,Wunderground v.1.15,2016-02-08 20:30:00,
2016-02-08 15:35:00,66.7,53.3,29.98,SSE,157,2.0,2.0,62,0.00,,,0.00,Wunderground v.1.15,2016-02-08 20:35:00,
2016-02-08 15:45:00,66.3,52.9,29.98,SSE,155,2.0,3.0,62,0.00,,,0.00,Wunderground v.1.15,2016-02-08 20:45:00,
2016-02-08 15:55:00,66.3,52.9,29.98,SE,127,1.0,2.0,62,0.00,,,0.00,Wunderground v.1.15,2016-02-08 20:55:00,
2016-02-08 16:00:00,65.7,53.2,29.98,SSW,193,2.0,2.0,64,0.00,,,0.00,Wunderground v.1.15,2016-02-08 21:00:00,
2016-02-08 16:05:00,65.5,53.0,29.98,NE,50,2.0,2.0,64,0.00,,,0.00,Wunderground v.1.15,2016-02-08 21:05:00,
2016-02-08 16:10:00,65.7,53.6,29.98,SSE,158,2.0,2.0,65,0.00,,,0.00,Wunderground v.1.15,2016-02-08 21:10:00,
2016-02-08 16:15:00,65.4,53.3,29.98,ESE,120,2.0,3.0,65,0.00,,,0.00,Wunderground v.1.15,2016-02-08 21:15:00,
2016-02-08 16:25:00,64.6,53.0,29.98,SW,235,2.0,5.0,66,0.00,,,0.00,Wunderground v.1.15,2016-02-08 21:25:00,
2016-02-08 16:30:00,64.5,53.3,29.98,South,191,1.0,1.0,67,0.00,,,0.00,Wunderground v.1.15,2016-02-08 21:30:00,
2016-02-08 16:35:00,64.4,53.2,29.98,SE,143,2.0,6.0,67,0.00,,,0.00,Wunderground v.1.15,2016-02-08 21:35:00,
2016-02-08 16:40:00,64.0,53.2,29.98,SSW,202,2.0,7.0,68,0.00,,,0.00,Wunderground v.1.15,2016-02-08 21:40:00,
2016-02-08 16:45:00,63.6,52.8,29.98,South,180,3.0,7.0,68,0.00,,,0.00,Wunderground v.1.15,2016-02-08 21:45:00,
2016-02-08 16:50:00,63.4,53.4,29.98,East,85,2.0,2.0,70,0.00,,,0.00,Wunderground v.1.15,2016-02-08 21:50:00,
2016-02-08 17:00:00,63.0,53.4,29.98,SSE,165,2.0,2.0,71,0.00,,,0.00,Wunderground v.1.15,2016-02-08 22:00:00,
2016-02-08 17:05:00,62.8,53.6,29.98,South,171,2.0,2.0,72,0.00,,,0.00,Wunderground v.1.15,2016-02-08 22:05:00,
2016-02-08 17:10:00,62.7,53.9,29.97,SSW,192,1.0,3.0,73,0.00,,,0.00,Wunderground v.1.15,2016-02-08 22:10:00,
2016-02-08 17:15:00,62.6,54.2,29.97,SSE,167,1.0,5.0,74,0.00,,,0.00,Wunderground v.1.15,2016-02-08 22:15:00,
2016-02-08 17:20:00,62.5,54.1,29.97,SSW,200,1.0,1.0,74,0.00,,,0.00,Wunderground v.1.15,2016-02-08 22:20:00,
2016-02-08 17:25:00,62.5,54.1,29.97,ESE,117,1.0,1.0,74,0.00,,,0.00,Wunderground v.1.15,2016-02-08 22:25:00,
2016-02-08 17:30:00,62.4,54.4,29.97,SSE,153,1.0,2.0,75,0.00,,,0.00,Wunderground v.1.15,2016-02-08 22:30:00,
2016-02-08 17:35:00,62.3,54.3,29.97,SSW,195,1.0,2.0,75,0.00,,,0.00,Wunderground v.1.15,2016-02-08 22:35:00,
2016-02-08 17:40:00,62.3,54.6,29.97,ESE,108,1.0,1.0,76,0.00,,,0.00,Wunderground v.1.15,2016-02-08 22:40:00,
2016-02-08 17:45:00,62.2,54.9,29.97,SW,231,1.0,1.0,77,0.00,,,0.00,Wunderground v.1.15,2016-02-08 22:45:00,
2016-02-08 17:50:00,62.1,54.8,29.97,ESE,112,1.0,1.0,77,0.00,,,0.00,Wunderground v.1.15,2016-02-08 22:50:00,
2016-02-08 18:00:00,61.8,54.9,29.97,SE,136,1.0,1.0,78,0.00,,,0.00,Wunderground v.1.15,2016-02-08 23:00:00,
2016-02-08 18:10:00,61.4,54.8,29.97,SW,236,1.0,1.0,79,0.00,,,0.00,Wunderground v.1.15,2016-02-08 23:10:00,
2016-02-08 18:15:00,61.3,55.1,29.97,ESE,116,1.0,1.0,80,0.00,,,0.00,Wunderground v.1.15,2016-02-08 23:15:00,